Theta_e
337 329 328 327 324 323 330 339 340 341 342 340 338 337 334 333 336 333 323 317 316 317 321 326 332 338 340 342 342 342 343 343 343 343 343 343 343 343 343 343 343 342 338 333 330 328 327 327 328 327 328 332 333 335 335 328 324 330 333 331 328 325 326 329 330 331 330 330 331 333 336 337 336 336 335 336 335 334 334 332 331 332 334 334 333
337 330 327 325 326 324 329 339 340 341 341 338 337 334 332 335 335 327 320 319 324 330 335 338 340 342 342 342 342 343 343 343 343 343 343 343 343 343 342 343 343 340 334 331 332 331 331 331 330 331 332 333 334 335 336 328 321 329 334 335 332 328 329 330 330 329 328 325 324 325 330 335 336 335 334 333 332 331 332 333 331 331 331 332 332
333 328 327 328 329 326 328 337 340 339 338 337 334 333 334 335 330 322 322 329 336 340 341 342 342 343 342 343 343 343 343 343 343 343 343 343 343 343 343 342 343 340 337 336 337 336 334 334 332 333 335 335 334 334 332 324 320 328 333 334 334 332 332 333 333 333 333 331 329 325 324 329 332 332 331 331 330 331 333 333 333 332 331 330 330
332 327 329 334 334 330 328 335 339 338 336 334 333 335 335 332 325 319 326 337 341 342 342 342 342 343 343 343 343 343 343 343 343 344 343 343 343 342 343 342 342 341 340 339 339 338 337 336 334 332 334 335 334 334 329 319 322 329 332 333 333 334 334 334 335 334 335 335 333 332 325 323 329 330 329 330 330 332 334 333 333 333 332 329 328
332 328 331 335 335 332 327 330 335 335 334 333 333 335 332 326 322 321 331 340 342 342 343 342 343 343 344 343 343 343 343 343 343 343 343 343 343 343 343 342 342 341 341 340 339 339 336 335 335 333 331 332 331 331 326 321 327 331 332 333 333 334 334 335 335 335 336 337 335 334 331 323 325 331 331 332 333 333 334 333 334 334 333 328 327
331 328 330 332 334 332 327 327 330 332 332 331 332 330 326 323 321 326 337 341 342 343 343 343 344 343 343 343 343 342 342 342 342 342 342 342 343 343 342 342 341 341 341 340 340 338 335 333 334 333 331 329 326 325 325 326 331 333 333 333 333 334 334 335 335 336 336 337 337 334 334 327 324 333 334 334 334 333 334 333 333 333 333 328 326
330 329 330 331 334 333 328 325 326 328 329 328 326 324 323 322 325 333 339 341 342 343 343 344 344 343 343 343 342 342 342 342 342 342 342 343 343 342 342 342 341 342 341 340 341 337 333 331 331 331 330 327 323 324 328 331 333 333 334 333 334 334 334 334 335 336 336 337 338 335 335 330 325 333 336 335 335 334 334 332 333 333 333 330 325
333 332 331 331 336 335 327 323 324 324 324 322 321 323 325 327 333 339 341 342 343 343 344 344 344 344 343 343 342 342 342 342 342 343 342 342 342 342 342 342 342 341 341 341 339 334 330 329 330 330 329 327 322 325 330 332 333 334 333 334 334 334 334 334 334 334 336 336 339 336 335 332 325 331 335 335 335 335 334 332 332 331 332 329 324
337 331 328 331 337 335 325 321 321 320 321 322 324 328 331 335 339 341 341 342 343 344 343 343 344 343 343 343 343 342 341 341 342 342 342 342 342 342 341 341 341 340 340 339 333 329 328 328 330 330 329 327 322 321 326 329 331 333 333 333 333 334 334 333 333 333 335 336 337 336 334 332 324 326 333 335 335 335 335 333 332 330 330 327 325
338 329 326 332 337 332 323 320 319 321 324 328 330 333 336 340 342 342 343 343 344 343 343 343 343 343 343 342 341 340 337 336 337 337 337 339 340 340 340 340 340 339 338 336 330 327 328 328 329 330 329 329 324 318 321 327 330 332 333 333 334 333 333 332 332 332 334 335 335 334 332 331 324 322 329 333 334 334 333 332 332 330 329 327 328
336 327 327 333 336 330 323 320 320 324 328 331 334 337 340 342 343 343 343 344 344 344 344 343 343 343 342 341 339 335 331 328 327 327 328 333 336 337 338 339 338 338 337 334 329 327 327 327 330 330 329 330 326 319 319 326 331 333 333 333 333 333 334 333 331 330 332 334 333 333 333 331 325 320 324 330 332 332 330 330 329 328 327 327 329
333 326 330 335 336 333 329 325 323 326 329 332 336 341 343 343 343 344 343 343 344 343 343 343 343 342 341 338 335 331 329 326 324 322 320 323 326 330 332 333 335 336 334 332 328 327 327 327 330 330 329 330 329 322 319 326 331 332 332 333 333 333 333 333 331 330 332 334 333 333 334 331 324 320 322 325 327 329 328 329 329 325 326 329 329
332 330 333 336 336 337 337 334 333 334 336 338 340 343 343 343 343 343 343 343 343 343 343 342 340 339 337 335 334 332 330 327 325 322 319 317 316 319 323 327 332 333 330 330 329 327 326 327 330 331 330 330 330 325 319 325 331 332 333 333 332 332 332 333 332 332 333 335 335 334 333 330 323 319 321 322 325 330 330 330 330 326 327 330 329
334 333 334 335 337 338 340 341 342 342 343 343 343 344 343 343 343 343 343 343 343 342 341 339 338 336 335 335 334 332 330 328 325 322 318 314 311 312 316 321 325 327 326 327 326 323 325 327 329 332 331 330 330 327 321 323 330 332 332 332 332 334 334 334 333 333 334 334 333 333 332 331 325 320 320 320 326 332 331 330 330 327 328 329 328
332 332 334 337 339 339 340 343 343 343 343 343 344 344 343 343 343 343 343 342 342 340 339 337 336 336 336 335 334 332 330 328 325 322 319 314 312 311 311 314 317 321 323 323 321 318 322 326 329 332 332 331 330 328 323 323 329 331 331 332 334 335 334 334 334 333 334 334 331 332 333 332 327 322 319 319 326 330 329 328 329 328 328 328 328
330 330 335 338 340 340 341 342 342 343 343 343 343 343 343 343 343 342 342 342 341 339 338 337 337 337 336 334 332 331 329 327 324 322 320 315 312 311 310 311 313 316 317 318 316 314 320 325 329 332 332 332 331 329 325 323 326 328 330 334 335 335 335 335 333 330 331 332 331 331 332 332 328 322 318 317 323 327 327 328 328 328 328 328 329
331 332 335 338 339 340 340 341 342 343 343 343 343 343 343 343 343 342 342 341 340 339 338 338 338 337 335 333 331 329 328 325 322 320 319 316 312 310 309 310 311 312 313 313 312 314 322 325 329 332 331 332 331 330 327 325 324 326 331 334 335 335 335 335 333 330 331 331 330 331 331 332 329 323 318 316 320 323 325 327 327 328 328 328 328
335 333 333 336 338 339 340 341 342 342 343 343 343 343 343 343 342 342 341 340 340 339 339 338 337 335 333 332 330 328 327 323 321 320 320 319 317 313 309 310 310 310 311 310 311 317 323 325 328 331 331 331 331 331 330 327 325 324 329 333 334 335 335 336 334 333 334 332 331 332 332 332 329 324 320 317 318 321 324 326 326 327 328 328 327
337 335 334 335 337 338 340 341 341 342 342 343 343 343 343 342 342 341 341 340 340 338 337 337 335 333 332 331 331 330 326 324 323 321 322 324 323 320 314 311 310 310 310 310 313 320 324 325 327 329 330 331 331 331 330 329 328 325 326 330 333 334 334 335 335 335 336 334 333 333 333 333 328 324 323 321 320 321 325 326 326 327 327 327 327
338 337 337 338 337 338 340 341 341 342 342 342 342 342 342 342 341 341 340 339 338 337 336 334 333 332 331 332 335 335 331 330 326 323 324 325 325 325 322 316 312 310 310 311 315 321 324 325 326 327 328 329 330 330 330 329 328 327 326 327 329 330 329 331 334 335 334 334 333 332 332 333 329 325 325 324 324 324 325 327 327 328 327 327 328
340 340 340 340 338 338 340 341 341 341 341 342 341 342 342 341 341 340 338 338 337 336 334 330 330 333 333 334 337 338 336 335 332 329 327 324 325 326 325 323 320 317 314 313 314 319 322 323 325 326 327 328 329 331 331 331 331 330 329 329 327 326 327 329 334 335 334 333 331 332 332 333 332 328 324 324 326 326 326 328 328 328 329 328 328
342 341 341 340 338 338 339 339 340 340 340 341 341 341 341 341 340 339 338 337 336 333 330 328 329 334 336 336 339 339 338 336 336 337 330 322 325 326 326 326 326 327 324 319 316 317 318 320 322 323 325 327 327 330 332 333 335 334 332 332 329 328 332 334 333 334 335 333 330 333 334 334 333 329 326 325 326 327 327 328 328 328 329 329 328
344 343 342 340 339 340 339 338 339 338 338 339 340 340 340 340 338 338 337 336 335 334 334 333 332 334 336 338 340 340 340 338 338 340 333 326 327 326 328 328 327 330 331 330 326 324 323 323 324 322 320 323 325 330 334 335 336 337 335 333 332 332 335 335 334 334 335 334 332 334 333 333 332 330 329 328 326 327 328 329 328 328 328 329 329
344 344 343 341 341 342 340 338 337 336 337 337 338 339 338 338 338 337 335 335 337 337 338 338 337 337 337 339 340 340 340 340 340 341 335 332 335 332 333 334 331 331 333 335 334 333 332 332 332 329 323 324 327 331 333 334 335 337 336 335 335 335 335 335 336 335 335 334 333 334 333 333 333 332 332 331 329 328 328 329 329 329 329 329 329
342 342 341 342 343 342 340 339 337 337 337 335 336 337 338 338 338 337 334 335 338 337 339 340 340 339 339 340 340 339 339 338 338 338 335 336 339 338 338 338 336 336 336 337 338 337 336 336 336 335 332 331 332 332 332 332 333 336 336 334 334 335 336 336 335 333 333 335 334 333 333 333 333 334 333 333 331 328 328 329 329 329 330 330 330
340 340 340 341 342 341 340 339 338 338 335 333 336 337 338 338 338 337 335 337 338 337 339 340 340 339 339 339 339 339 339 337 337 338 338 338 339 338 338 339 338 338 338 338 338 338 338 338 337 336 335 334 334 333 332 331 332 334 334 332 331 333 334 335 334 333 333 334 334 333 333 333 333 333 333 332 331 329 327 329 330 330 331 331 331
340 341 341 342 341 341 340 339 339 337 333 333 335 335 336 337 338 338 337 338 338 337 338 337 338 338 339 339 339 339 339 339 339 339 339 339 338 338 338 338 337 337 338 339 339 339 339 337 337 336 336 335 335 334 334 332 332 332 333 333 332 332 332 332 332 332 333 333 333 332 332 333 334 333 333 332 331 330 329 329 330 330 331 332 331
340 341 341 341 341 340 339 339 338 336 335 335 334 334 335 336 337 338 338 338 338 338 338 337 337 338 339 340 340 340 339 339 340 339 339 338 338 338 339 338 337 336 337 339 339 339 338 338 337 337 337 337 336 335 335 334 334 333 333 334 334 334 334 332 331 331 332 333 333 333 333 334 334 333 334 334 333 332 331 331 331 331 331 332 332
339 339 340 340 339 338 337 337 337 336 336 335 335 336 337 337 336 337 338 338 337 338 338 338 338 339 340 340 340 340 339 339 339 339 338 339 339 339 340 339 338 338 338 338 339 338 339 339 338 337 338 338 337 337 336 336 336 335 335 335 334 334 334 334 333 333 333 334 334 334 334 334 333 333 333 334 334 333 333 332 332 332 330 331 333
338 337 338 337 336 335 335 336 336 336 334 334 336 338 338 337 337 338 339 338 337 339 338 339 340 340 341 340 339 339 339 340 339 338 338 339 339 339 340 340 339 339 338 338 339 339 339 339 339 338 338 339 338 337 336 337 336 336 335 336 335 334 334 334 334 334 334 334 335 334 334 334 333 333 333 333 333 333 334 334 333 333 332 330 333
336 336 336 334 334 335 335 335 336 336 334 333 336 338 338 337 338 338 338 339 339 339 338 339 340 340 341 340 339 339 340 340 339 339 338 339 339 339 340 340 339 339 339 340 339 339 339 338 339 338 337 338 338 337 336 336 335 335 335 335 336 335 335 335 334 334 334 334 334 334 334 334 333 333 333 333 333 332 333 335 335 334 333 332 333
335 335 335 334 334 335 335 335 336 336 334 334 336 337 338 338 338 338 339 339 339 339 338 337 338 339 340 340 340 340 339 340 340 340 339 339 339 339 339 339 340 340 340 339 339 339 339 338 339 338 338 337 337 337 336 336 336 335 335 336 336 336 336 336 336 335 335 334 334 335 335 334 334 334 334 334 333 333 332 334 335 335 335 333 333
336 335 334 334 336 336 335 336 335 335 335 336 337 337 338 338 338 338 339 338 338 338 339 337 337 338 338 338 340 340 339 340 340 340 340 339 339 339 339 339 340 339 339 339 339 339 339 339 339 339 339 338 338 337 337 337 336 336 336 336 336 336 336 336 336 336 336 336 336 336 336 335 335 334 334 334 334 334 334 334 334 335 335 335 334
336 335 334 335 336 336 335 336 336 335 335 337 338 337 338 338 339 339 339 339 338 339 339 338 338 338 337 336 337 338 340 340 340 340 340 339 339 339 338 338 339 339 339 339 339 339 339 339 339 338 338 337 337 337 337 337 336 336 337 337 337 336 336 336 337 336 337 337 337 337 336 336 336 335 335 335 335 335 335 335 335 335 335 335 335
336 335 335 335 335 336 336 336 336 336 337 338 338 338 338 339 339 339 339 339 339 338 338 337 337 337 337 337 336 336 339 340 340 340 340 339 338 338 339 338 338 339 340 339 339 339 338 339 339 338 338 337 337 336 336 337 336 336 336 337 337 337 336 337 337 337 337 337 337 338 337 337 336 336 337 337 337 336 336 335 336 336 335 335 335
337 336 336 336 336 336 336 337 337 338 338 338 338 339 338 338 339 339 339 339 339 338 337 337 337 336 337 337 336 336 339 340 340 340 340 339 338 338 339 338 338 339 338 338 338 338 338 338 338 337 337 337 337 336 336 337 337 337 336 337 337 337 337 337 337 337 337 337 337 337 337 337 337 337 337 337 338 337 337 337 336 337 336 336 336
337 336 337 337 337 337 337 338 338 339 339 338 338 338 338 338 339 338 338 338 338 337 337 336 336 336 336 336 335 337 339 339 339 338 338 338 337 337 338 338 338 338 337 337 337 337 337 337 337 336 336 336 336 337 337 336 336 336 336 336 336 337 337 336 337 336 337 337 338 338 337 337 337 337 337 337 337 337 337 337 337 337 337 337 337
337 337 338 338 338 338 338 338 338 339 339 339 338 338 338 338 339 338 337 337 337 337 336 335 335 336 335 335 336 337 338 337 337 337 337 337 337 337 337 337 337 337 336 337 336 336 336 335 335 335 335 335 336 335 335 334 335 335 335 335 335 334 335 335 335 335 336 337 337 337 337 337 336 336 336 336 337 337 337 337 337 337 337 337 337
338 338 338 338 338 338 338 338 338 338 339 339 339 338 338 337 338 338 337 336 336 336 335 335 335 335 335 335 336 337 336 336 336 336 336 335 335 335 335 335 335 335 334 334 334 334 334 333 333 333 334 334 333 333 332 332 332 333 333 332 332 332 333 333 333 334 335 336 337 337 336 335 335 334 335 336 336 336 335 335 335 335 335 334 335
338 338 338 338 338 338 338 338 337 338 338 339 339 338 337 336 336 337 336 336 336 335 335 335 335 336 335 335 335 334 334 334 334 334 334 333 332 331 332 332 332 332 331 331 330 330 330 330 330 330 331 331 331 330 329 330 331 331 330 330 330 331 331 332 335 336 336 337 338 337 337 335 334 334 335 335 335 335 335 335 335 334 334 333 334
337 338 338 337 338 338 337 337 337 338 337 338 338 337 336 335 335 335 335 335 335 335 334 335 335 335 334 333 332 332 332 332 332 331 331 331 330 329 329 329 330 330 329 328 328 328 327 327 327 327 327 328 328 327 327 329 329 330 330 329 329 328 329 333 335 334 333 333 333 333 333 333 333 334 334 335 335 335 335 334 333 333 334 333 333
336 337 337 337 337 337 337 337 337 337 337 337 336 336 335 335 334 334 334 334 335 334 334 333 333 333 332 331 331 330 330 330 329 328 328 328 327 327 326 326 326 327 327 326 325 326 325 324 324 325 325 325 326 325 325 327 327 328 329 330 331 329 329 332 333 330 329 329 329 329 329 329 330 330 331 333 334 334 333 333 333 333 333 333 333
336 337 337 338 338 337 336 336 336 336 336 336 335 335 335 334 334 333 334 335 334 333 333 332 332 331 329 329 328 327 327 327 326 325 325 325 325 325 324 323 323 324 324 324 323 323 323 322 322 323 323 323 324 323 323 324 325 326 328 331 333 333 332 330 328 327 327 328 327 326 327 327 326 326 327 328 329 329 330 330 330 330 331 331 331
336 337 337 337 337 336 336 336 335 335 335 335 335 334 334 333 333 334 334 334 333 332 332 331 331 330 327 326 325 325 324 324 323 323 323 323 323 323 323 322 321 322 322 322 321 321 321 321 321 321 321 321 322 322 321 322 321 323 326 329 330 332 331 327 325 325 326 326 325 325 324 323 323 324 324 324 324 323 324 324 325 326 326 327 328
337 337 337 337 336 335 335 335 335 335 335 335 335 335 334 333 334 334 334 333 332 332 331 329 328 327 325 324 323 323 322 322 321 320 320 320 320 321 321 320 319 320 320 319 319 319 320 320 319 319 319 319 320 319 319 319 319 320 322 324 326 328 326 323 324 325 325 324 324 323 322 321 320 320 321 321 320 320 320 320 321 322 322 324 326
337 336 336 336 335 334 334 335 335 335 335 335 335 335 334 334 335 335 334 332 331 330 329 327 326 324 323 323 323 322 321 320 319 318 318 318 318 318 319 318 318 318 318 318 318 318 318 318 317 317 317 317 318 317 316 316 317 317 317 319 321 322 321 321 323 323 322 322 322 321 319 319 316 316 319 318 317 317 315 316 317 319 320 322 325
336 335 335 334 334 334 333 334 334 334 334 334 334 334 334 334 335 335 333 331 330 329 328 327 326 323 322 322 322 320 319 318 317 317 317 317 316 317 317 317 317 317 317 317 317 317 316 316 316 316 316 316 316 315 314 315 315 314 315 316 316 317 318 319 319 319 320 320 319 318 317 315 314 315 316 314 313 312 310 312 314 316 319 320 321
335 335 334 333 333 332 331 332 332 332 332 332 332 333 334 334 334 334 332 330 329 327 327 327 324 322 321 320 319 318 317 317 316 316 316 316 315 315 316 316 316 316 316 315 314 314 314 314 313 313 313 314 314 313 313 313 313 313 313 313 313 314 316 316 315 316 317 317 316 315 313 312 312 313 312 311 311 310 310 312 312 314 317 315 317
335 334 334 333 332 330 330 330 330 330 330 330 331 332 333 333 333 332 330 329 328 326 326 325 323 321 319 318 317 316 316 316 315 315 315 315 314 314 314 315 315 314 315 314 312 311 311 311 311 311 312 312 311 311 311 311 311 311 311 312 312 313 315 314 313 313 314 315 315 313 311 311 311 311 310 309 309 309 310 311 311 313 313 310 313
334 333 332 331 330 329 329 329 328 328 329 329 329 330 331 331 330 329 328 327 326 326 325 323 321 320 318 317 316 315 315 315 314 313 313 313 313 312 312 313 313 313 314 313 312 311 311 311 311 311 311 311 310 311 311 311 311 311 311 311 312 313 313 313 311 311 312 312 312 311 311 311 310 309 309 308 307 308 308 309 310 310 309 308 311
333 332 330 329 328 328 327 327 326 327 327 327 328 328 328 328 327 327 326 326 325 325 324 322 320 319 317 316 315 314 314 312 311 311 311 311 311 310 311 312 312 312 313 313 312 312 311 312 312 311 311 311 311 311 310 310 310 310 310 311 311 311 311 310 309 309 309 310 310 310 310 309 309 308 307 306 306 306 306 307 308 307 306 308 308
Wind_Speed
20 21 21 18 18 17 17 18 18 18 19 19 19 19 19 17 16 14 14 14 16 17 18 18 17 16 16 16 15 15 15 15 15 15 15 15 14 14 15 15 15 15 14 14 14 14 14 15 15 14 13 11 10 10 11 12 14 17 17 17 17 16 17 17 17 17 16 16 16 16 17 17 15 16 17 17 15 15 16 16 15 16 16 15 14
21 21 21 20 18 18 18 18 18 18 19 19 20 20 19 17 16 15 15 16 17 17 17 17 16 16 15 15 15 15 15 15 15 15 15 15 14 14 15 15 15 14 14 14 14 14 15 15 16 15 14 12 11 11 11 11 13 17 18 16 17 19 19 19 18 19 18 18 16 15 15 15 14 14 15 13 12 13 14 15 15 15 14 13 13
25 22 21 20 19 19 18 18 18 19 19 20 20 20 19 18 16 16 17 17 17 16 16 16 15 15 15 15 15 15 15 15 15 15 14 14 14 14 15 15 14 14 14 14 14 14 14 15 16 15 13 12 11 11 10 11 13 18 20 18 18 18 19 18 18 19 19 18 17 15 13 13 13 12 12 11 11 13 14 14 14 14 13 11 11
26 23 21 19 18 19 18 18 18 19 20 20 21 20 19 18 17 17 18 18 17 16 16 16 15 15 15 15 15 14 15 15 15 14 14 14 14 14 14 14 14 13 13 14 14 14 13 14 14 15 13 12 12 10 11 14 17 19 20 19 19 18 18 17 16 16 17 17 16 16 15 13 14 14 13 13 12 13 14 12 13 14 13 12 12
27 22 21 19 18 19 18 19 18 19 20 21 22 21 20 18 18 18 18 17 16 15 15 15 15 15 15 15 15 14 14 14 14 14 14 14 13 13 13 13 13 13 13 13 13 13 13 13 13 14 14 14 12 11 13 17 19 19 19 19 18 17 16 15 14 13 12 12 13 13 14 12 14 15 14 14 14 13 14 12 12 12 11 13 14
26 23 21 20 19 19 19 19 19 20 20 21 22 21 20 19 19 19 18 17 16 15 14 15 15 15 15 15 15 14 14 14 14 14 14 14 13 12 12 12 12 12 12 12 12 12 12 12 12 13 13 15 14 13 16 19 19 19 18 17 16 14 13 12 11 10 7 8 10 8 8 9 11 14 12 13 12 12 12 11 12 11 11 12 14
26 24 21 20 20 19 19 20 20 21 21 21 21 20 20 20 20 19 18 17 16 15 14 14 15 15 15 15 15 15 15 14 14 13 13 13 12 12 11 11 11 11 11 11 11 10 11 13 12 12 13 15 15 15 18 20 19 18 17 15 14 13 11 10 8 8 7 7 8 7 4 6 9 11 10 10 10 10 10 10 10 9 10 11 12
24 23 21 21 20 18 20 21 21 21 21 21 21 21 21 21 20 19 18 17 16 15 15 15 15 15 15 15 15 15 15 15 14 13 13 12 12 11 11 10 11 11 10 10 10 9 12 13 12 12 12 14 15 15 17 18 18 17 16 14 13 11 9 8 8 8 9 8 8 8 3 5 7 9 10 10 10 9 8 8 8 6 6 8 10
23 21 21 21 19 19 21 22 22 21 22 22 22 22 22 22 20 18 18 17 16 16 15 15 15 15 15 15 15 14 14 14 13 13 12 11 11 10 9 9 9 9 9 9 9 10 12 13 12 12 12 13 14 14 16 16 16 15 15 13 11 10 9 9 10 11 12 10 11 9 2 5 7 7 8 9 9 7 5 6 6 6 6 8 10
22 21 22 21 19 19 22 23 23 23 23 23 24 23 22 20 19 18 17 17 16 16 15 15 15 15 15 15 14 13 12 12 11 10 10 9 9 8 8 8 8 8 7 7 9 11 11 11 11 11 12 12 13 14 14 15 15 15 14 12 10 9 9 10 12 13 14 14 11 5 1 5 8 7 6 8 8 6 4 5 6 6 6 8 10
22 22 22 21 19 20 23 23 23 23 23 23 23 21 20 18 18 17 17 16 16 16 15 15 15 14 14 13 13 12 11 10 9 8 7 8 7 7 7 7 7 7 6 7 8 10 11 10 10 10 12 12 13 13 14 15 15 15 13 11 10 9 10 11 12 11 12 13 7 1 1 4 8 8 4 5 5 4 3 4 5 5 7 9 10
23 23 23 21 20 20 22 22 23 22 22 21 20 19 18 17 17 17 17 16 16 16 15 15 14 13 13 12 11 11 10 10 9 7 7 6 6 5 6 7 7 7 6 7 8 9 10 9 9 10 11 12 13 13 14 15 15 14 12 11 9 9 10 11 10 10 10 11 5 1 0 4 9 9 4 2 3 4 4 5 5 6 9 10 8
26 24 24 23 21 21 21 20 21 20 19 18 17 17 17 17 17 17 17 16 16 15 15 14 13 12 11 11 10 10 9 9 8 7 7 6 5 5 5 7 7 6 7 8 8 8 8 9 9 9 10 11 12 12 13 14 14 13 12 10 10 10 10 10 10 10 10 9 5 1 1 4 9 10 5 3 4 5 6 6 6 7 10 8 7
28 26 25 24 22 20 21 20 19 19 18 18 17 17 17 17 17 17 16 16 16 15 14 13 12 12 11 10 9 9 8 8 8 7 7 7 6 5 5 6 7 7 8 8 8 7 8 8 8 9 9 10 11 12 12 13 13 12 11 10 9 9 8 8 8 7 7 8 5 1 1 5 9 11 7 5 4 5 5 5 5 7 8 7 7
28 28 27 25 22 20 20 20 19 19 18 17 17 17 17 16 16 16 16 15 15 14 13 12 11 10 9 9 8 8 7 7 7 6 6 7 7 7 5 5 6 7 8 8 7 8 9 8 8 9 9 9 9 10 11 12 12 12 10 9 8 7 6 7 6 7 7 8 5 2 2 4 9 11 9 6 3 3 3 3 5 5 6 6 6
27 28 28 26 22 20 19 19 19 19 18 17 16 16 16 16 16 16 15 15 14 14 12 11 10 9 8 7 7 7 7 7 6 6 6 7 8 7 6 5 6 7 7 7 8 9 10 9 8 8 9 8 8 8 9 9 10 9 8 7 6 5 6 7 7 8 8 7 5 1 2 4 9 12 10 6 2 1 2 2 4 4 4 5 6
27 28 28 26 23 21 20 18 18 18 17 16 16 16 15 15 15 15 15 14 13 12 11 9 8 7 7 7 7 7 7 6 6 7 8 9 10 9 8 6 6 6 7 8 9 10 11 9 8 8 9 8 8 7 7 7 6 6 6 6 4 4 5 7 6 7 7 4 4 1 2 5 9 12 10 7 4 3 2 2 3 3 4 4 4
26 27 27 26 23 21 21 19 17 17 17 16 16 15 15 15 15 15 14 13 12 10 9 8 7 7 7 7 7 8 8 7 7 7 9 11 12 12 10 8 7 7 7 8 10 11 10 9 9 8 8 8 8 7 6 7 7 5 5 4 3 4 4 6 5 7 7 3 4 2 3 5 7 10 9 7 6 4 3 3 3 1 2 2 2
24 25 26 24 22 22 21 19 18 17 17 17 16 15 14 14 14 14 13 11 10 9 8 7 7 7 8 9 9 9 9 9 8 8 9 11 12 13 12 11 9 8 8 9 10 11 9 8 8 7 7 7 7 7 7 7 7 6 5 4 3 3 4 5 4 8 8 5 6 3 4 5 6 9 9 7 7 5 5 4 3 1 1 2 2
23 24 23 22 21 22 21 19 18 17 16 16 16 15 14 13 14 13 12 10 9 8 8 8 8 8 8 9 10 10 9 8 8 8 8 9 11 12 12 13 12 10 9 9 9 9 8 7 6 5 5 5 5 5 5 6 6 6 4 2 1 1 2 4 4 9 7 5 6 5 5 5 5 8 8 8 8 6 5 4 3 1 2 4 2
23 22 22 21 20 21 20 17 16 15 15 16 15 15 14 13 13 12 11 9 8 8 7 8 8 8 7 6 7 8 7 7 8 8 8 8 9 9 10 12 13 12 11 9 8 6 5 4 4 3 2 2 2 2 4 5 5 4 4 2 2 3 4 4 3 7 7 4 7 7 6 5 6 7 7 9 9 7 6 5 4 2 2 2 1
23 23 22 21 21 20 18 16 15 14 14 14 15 15 14 13 13 12 11 9 8 8 8 8 9 8 7 5 4 5 5 5 5 6 7 7 6 7 7 9 10 11 11 10 8 6 4 3 2 1 0 1 1 0 3 2 3 2 4 5 3 2 2 3 3 6 7 7 8 8 7 6 7 6 7 9 9 9 8 6 6 3 3 2 4
24 25 24 22 21 20 18 18 17 13 13 14 14 14 14 13 12 12 10 9 8 7 7 8 9 8 6 5 4 2 3 4 4 5 6 6 5 5 5 6 7 7 8 8 7 6 5 4 2 1 1 2 2 1 3 3 2 2 4 5 3 2 2 2 4 6 7 10 8 7 7 6 7 7 8 9 10 10 9 8 7 5 4 3 5
24 25 25 23 23 22 19 18 16 14 14 13 14 14 13 12 12 11 9 8 8 6 5 4 4 4 4 4 4 4 4 3 2 1 1 3 4 4 4 4 4 5 4 4 4 4 4 3 4 3 2 1 2 2 3 5 6 5 5 6 4 2 1 2 4 6 9 10 7 6 7 8 8 9 10 10 10 10 10 10 9 8 7 4 6
22 22 22 22 23 23 21 18 15 14 13 13 14 15 13 11 10 8 7 7 8 6 2 1 2 4 5 4 5 6 5 4 5 5 3 1 1 2 2 1 1 2 3 2 1 2 2 3 3 4 3 3 4 5 6 8 8 7 6 7 8 7 5 5 6 8 9 9 7 9 10 10 10 11 12 12 12 12 11 11 10 10 9 7 8
19 20 21 21 21 23 21 18 16 13 12 14 16 15 12 11 9 6 6 8 8 5 2 4 6 6 6 5 6 6 5 4 5 5 4 3 2 1 1 2 2 3 3 3 2 3 5 5 6 5 5 7 7 8 9 10 9 8 8 9 10 10 9 9 9 8 9 9 9 11 11 12 12 13 15 15 15 14 13 12 11 11 10 10 11
19 21 22 22 22 22 20 19 16 13 12 15 16 15 14 13 11 8 6 7 7 6 5 7 6 5 5 5 6 6 5 5 4 3 3 3 2 1 1 3 4 4 4 4 4 4 6 8 8 8 8 9 9 10 11 9 8 9 9 10 12 12 12 11 10 10 11 11 12 13 13 12 13 14 16 17 16 15 14 14 13 13 11 11 13
21 21 23 22 21 20 19 18 15 13 14 14 15 15 15 15 13 10 8 7 8 8 8 7 5 6 6 5 6 6 4 4 2 1 1 1 1 1 2 4 4 4 4 5 5 4 5 7 7 7 7 8 9 10 9 6 6 8 9 10 11 12 12 12 12 12 12 13 14 14 13 13 14 15 15 16 17 16 16 16 15 15 13 12 13
22 21 22 21 20 19 17 17 16 14 14 15 15 15 14 15 12 9 7 7 8 8 8 5 4 6 6 6 5 4 3 2 0 2 1 1 2 2 3 4 4 3 4 4 4 5 5 6 6 6 7 7 8 8 8 6 6 7 8 9 10 12 12 12 13 13 13 14 13 14 14 15 16 17 16 16 17 17 18 18 17 16 15 13 13
22 22 21 20 19 18 17 16 16 14 15 17 16 16 16 16 14 11 8 9 10 9 7 5 5 6 5 6 4 3 2 2 2 3 3 2 3 3 3 4 5 4 4 5 4 5 6 7 7 8 8 8 9 9 8 8 8 8 8 9 10 11 12 13 13 14 15 15 15 15 16 17 18 18 18 18 18 18 18 19 18 17 17 15 14
24 22 21 20 17 18 18 16 15 15 17 16 14 17 18 17 17 14 12 12 13 13 10 8 6 4 4 5 4 3 2 1 2 3 4 3 3 3 1 2 4 5 5 5 4 4 5 5 7 7 8 8 9 9 9 10 10 10 10 10 11 12 13 13 13 13 14 14 15 16 17 18 18 17 17 17 19 19 18 18 19 19 18 17 16
24 23 22 20 18 20 20 18 15 14 14 12 13 17 17 17 16 14 12 12 13 13 11 9 6 3 4 4 3 2 1 1 3 4 4 3 3 3 3 4 5 4 5 5 5 5 5 6 6 7 7 8 8 8 9 10 10 10 11 11 12 13 12 12 12 12 13 13 14 15 16 17 17 17 17 17 17 17 17 17 18 19 19 19 17
24 24 24 20 19 22 22 18 15 13 11 11 14 16 15 14 14 12 10 10 11 10 9 7 6 2 3 4 2 2 1 2 3 4 3 3 4 4 5 6 5 5 6 6 7 7 7 8 7 7 8 9 9 8 9 10 10 10 11 11 12 13 13 13 13 13 14 15 15 16 16 16 17 17 17 16 17 16 16 16 17 17 18 20 19
25 26 25 21 19 22 22 18 15 13 11 11 13 14 13 12 12 10 8 8 9 7 6 6 6 6 2 5 3 3 3 2 3 3 2 3 4 6 5 4 4 5 6 6 6 6 6 7 7 7 8 10 9 9 10 10 11 12 12 12 13 14 14 14 15 14 14 14 15 16 16 16 16 17 17 16 17 17 17 17 17 17 17 18 19
27 27 25 22 20 20 20 18 14 12 11 12 13 12 11 11 9 8 8 7 7 6 6 6 7 7 4 2 3 2 5 4 4 4 5 5 4 6 6 4 5 5 4 4 5 5 5 6 7 8 9 9 9 10 10 11 13 13 13 13 14 14 14 14 15 15 15 15 15 15 16 16 16 17 18 17 17 18 18 18 18 18 18 17 18
27 26 24 23 22 20 19 17 14 13 12 12 13 12 11 11 9 8 8 7 7 7 8 7 6 6 7 4 2 1 6 6 5 5 8 8 6 8 9 7 6 4 4 3 4 5 5 6 7 8 9 10 11 12 11 12 13 13 13 13 14 15 15 15 16 16 16 16 15 15 15 15 16 17 18 18 18 19 18 18 18 18 18 18 18
28 27 25 24 23 20 19 17 15 14 14 14 14 13 12 11 10 10 9 8 8 9 10 9 9 9 9 5 2 5 8 8 8 8 11 12 11 11 10 8 7 5 4 4 4 5 6 6 6 7 9 10 11 12 13 13 13 13 13 13 13 14 15 15 16 16 16 16 15 14 14 14 15 16 17 18 19 19 18 17 18 18 18 17 17
28 26 25 24 23 21 20 18 16 15 15 15 15 14 12 11 11 11 11 11 11 11 11 12 12 13 13 9 7 8 9 9 10 11 13 13 12 11 10 9 8 7 6 6 6 6 6 7 7 6 7 8 10 12 13 13 13 12 12 12 13 13 14 15 16 16 15 15 14 14 14 15 15 15 16 17 17 17 17 18 18 18 18 18 18
26 25 25 23 22 22 21 19 18 16 15 15 15 14 13 13 13 13 12 12 14 15 15 16 17 18 16 12 10 9 9 9 10 11 13 13 12 11 10 10 9 9 9 8 9 9 8 8 8 8 7 8 12 14 13 13 13 11 11 12 12 11 12 14 16 16 17 15 13 13 14 15 15 16 17 17 16 15 16 18 20 21 21 20 19
24 23 22 21 22 23 22 20 18 17 16 16 17 16 15 15 14 14 15 15 17 17 18 19 20 19 16 13 11 11 10 10 10 10 12 13 13 12 11 10 9 10 11 11 12 11 12 11 10 10 9 8 12 15 15 14 13 12 13 12 10 10 12 13 11 11 13 13 13 15 16 18 18 17 16 16 15 16 17 19 21 23 24 23 21
20 20 21 21 22 23 22 21 19 18 18 18 17 16 16 16 16 17 18 18 18 18 18 17 18 17 14 11 11 11 10 9 9 9 11 12 13 12 11 10 8 10 11 12 11 11 12 12 11 10 11 11 13 16 17 15 15 15 15 14 14 11 9 8 9 11 12 11 12 15 17 20 20 19 19 17 16 17 17 18 19 22 23 23 23
18 19 20 21 21 21 21 20 19 17 18 18 16 16 16 16 18 20 20 19 19 19 18 16 15 14 12 10 9 8 8 8 9 9 10 11 12 12 12 11 9 9 10 10 9 9 11 12 12 12 11 11 12 16 19 16 14 14 11 11 13 13 11 7 6 11 17 16 17 19 20 22 22 21 20 17 17 18 19 19 19 20 22 23 23
17 18 19 20 19 19 20 19 18 17 16 16 16 17 17 16 18 19 20 21 21 20 18 15 13 11 10 9 8 8 8 9 9 9 10 10 10 11 12 12 11 9 9 9 9 9 11 12 13 13 12 12 12 15 19 18 17 14 7 5 6 8 9 10 13 18 18 17 20 21 21 24 24 22 23 24 22 20 20 20 20 21 22 23 24
16 16 17 18 18 18 19 18 18 17 17 17 17 18 18 16 16 18 19 21 20 18 17 14 10 8 8 9 9 9 9 10 11 10 11 11 10 9 10 12 12 11 10 10 10 11 12 12 12 13 14 14 13 15 16 20 22 16 7 3 3 4 4 9 18 20 15 17 21 21 22 25 26 24 25 27 26 26 26 25 24 25 26 27 28
15 15 16 17 18 18 18 18 19 19 19 19 18 18 19 18 19 19 19 19 18 15 15 14 11 9 9 10 10 10 10 11 12 12 12 12 10 9 10 11 12 12 12 12 13 12 12 12 12 13 15 15 14 15 16 18 22 20 13 5 3 3 2 8 15 13 14 19 18 21 23 24 27 27 26 27 28 29 30 30 29 27 29 32 32
14 16 16 17 18 19 19 19 19 19 19 19 18 18 19 21 22 20 18 18 18 15 14 13 11 10 9 9 9 9 10 11 12 13 13 13 11 9 10 12 14 13 13 14 14 14 13 13 13 12 14 15 14 17 18 17 18 20 19 13 8 6 5 9 7 7 16 18 13 18 22 24 29 27 25 28 30 32 32 32 31 29 29 31 31
16 17 17 19 19 19 20 20 19 18 18 18 17 15 15 20 20 17 17 18 19 16 13 11 10 9 9 8 8 9 11 12 12 12 12 13 13 10 9 12 15 14 13 15 16 15 14 13 13 12 14 15 16 19 19 18 17 18 19 18 15 14 12 11 6 5 11 12 15 21 21 25 29 24 25 29 31 33 34 32 31 30 28 27 28
19 19 20 20 20 20 20 20 21 20 19 18 16 15 15 18 19 17 17 16 17 16 13 11 10 10 10 10 10 11 11 12 12 11 10 12 14 11 9 11 14 14 14 17 17 14 14 14 15 15 15 16 18 18 18 17 16 16 18 18 17 17 16 16 14 10 5 6 15 20 24 31 27 20 24 29 30 32 32 30 30 28 27 27 28
20 20 21 21 20 21 21 21 21 20 19 18 17 18 19 20 19 18 18 17 16 15 13 12 11 11 11 12 11 11 10 10 11 11 9 10 13 13 11 12 14 14 14 17 18 16 17 18 19 20 19 19 19 18 18 18 17 16 17 17 17 17 15 15 18 15 7 4 7 11 22 32 28 23 26 28 30 30 28 28 28 27 27 29 28
20 21 21 22 22 21 21 21 21 19 19 18 18 20 21 20 19 18 19 18 17 15 13 12 11 11 12 12 12 11 10 9 10 12 11 11 12 14 14 15 16 16 15 16 17 18 19 20 20 20 19 18 18 18 18 17 17 17 17 16 15 16 13 11 15 16 10 7 6 6 14 20 21 26 29 30 31 29 26 26 26 27 30 30 28
20 21 22 22 22 21 21 21 19 18 17 16 17 19 20 20 19 18 17 16 15 13 13 14 13 13 13 13 13 13 13 13 12 12 13 13 14 16 17 17 18 17 16 16 17 16 17 17 17 18 18 17 17 18 18 18 17 17 19 20 17 17 17 15 17 19 14 9 7 6 11 15 16 23 29 29 28 26 25 25 25 27 29 28 29
Wind_Direction
141 138 136 136 132 129 126 124 124 127 125 126 126 125 124 120 117 114 111 110 109 107 106 103 100 96 93 92 92 92 91 91 91 91 92 94 96 97 99 100 97 92 89 86 82 80 78 76 69 67 67 70 77 75 72 76 90 96 91 88 88 92 95 94 93 91 91 92 93 92 89 83 84 89 89 95 92 79 75 73 74 76 73 70 67
143 139 137 137 135 132 130 127 128 129 126 128 127 126 124 121 120 116 116 113 108 104 101 100 98 97 96 96 95 94 92 91 92 93 94 96 97 99 102 101 97 91 87 85 83 82 81 73 64 63 65 69 75 82 80 75 91 102 98 95 92 93 95 93 88 83 81 80 82 86 89 87 86 92 93 93 84 72 74 72 70 71 69 70 69
140 139 137 137 137 136 132 130 131 130 128 128 128 127 125 125 123 121 119 113 107 103 102 102 101 100 99 98 96 95 94 93 93 94 95 97 99 101 104 102 98 93 87 85 82 80 77 66 60 64 67 68 72 80 82 79 95 106 105 105 101 98 98 96 92 84 76 71 68 65 75 89 89 89 91 84 77 72 72 70 64 63 61 64 70
138 137 136 137 137 137 134 134 134 133 130 127 127 127 128 128 125 125 120 115 109 105 105 104 103 103 101 99 96 96 96 95 95 94 96 98 101 103 105 103 100 97 91 85 82 78 70 59 57 61 65 66 70 76 81 90 102 107 107 105 103 101 100 99 98 92 80 68 59 55 58 78 89 87 87 79 75 75 71 65 56 57 56 59 68
135 136 137 137 138 139 137 136 135 134 131 126 127 128 129 128 127 126 121 116 110 107 108 106 106 105 102 100 98 98 97 97 97 97 97 99 101 103 104 102 99 96 91 84 83 81 70 61 58 58 58 59 63 77 92 102 107 108 106 103 100 98 97 96 98 101 92 70 58 56 50 62 85 81 77 75 73 75 73 70 66 60 51 59 70
135 136 137 138 141 141 140 137 133 133 130 126 127 129 129 128 129 126 121 117 113 111 109 108 108 106 103 101 100 98 98 99 99 99 99 100 101 103 105 103 100 96 91 87 83 79 71 65 64 60 56 56 62 86 104 109 110 107 103 101 100 97 95 92 92 95 92 74 72 76 53 49 75 75 70 74 74 75 75 77 81 76 57 58 68
134 135 137 140 141 141 140 136 132 131 129 128 129 129 130 130 129 125 123 120 117 115 111 110 109 107 105 102 101 100 100 99 100 101 101 102 103 104 104 102 101 97 91 87 81 76 73 68 66 63 58 60 71 97 111 111 109 107 105 102 100 96 93 87 81 74 60 62 84 110 78 41 72 83 79 81 79 75 78 80 86 90 73 54 57
132 135 139 141 141 142 140 135 133 132 131 131 130 130 130 130 129 127 126 122 119 117 114 113 110 109 107 104 103 102 103 102 102 102 103 104 104 103 103 103 102 99 96 90 87 85 79 72 66 64 60 64 81 104 112 112 111 109 107 103 99 92 84 75 62 53 49 65 110 139 123 37 65 85 83 84 87 83 83 82 83 88 70 44 54
133 137 140 140 141 142 139 135 133 133 132 131 131 131 131 131 130 129 127 123 121 118 117 114 113 111 109 108 106 106 106 106 105 106 109 111 109 109 108 107 106 106 109 102 97 93 81 74 71 67 65 67 83 108 115 115 115 112 108 102 96 86 75 66 61 64 71 98 134 147 132 33 48 68 85 86 89 92 86 71 62 63 52 45 62
137 141 140 138 141 142 138 135 134 133 132 131 132 133 132 131 130 129 126 124 121 119 119 117 116 114 113 113 111 109 107 108 108 111 114 116 120 120 115 114 111 109 109 106 106 98 85 77 76 74 73 72 82 105 118 120 118 113 110 103 95 84 76 69 74 84 91 115 136 140 67 29 31 39 80 88 87 89 77 61 53 55 46 50 69
138 140 135 135 139 140 137 135 135 134 133 133 134 133 131 130 129 128 126 125 123 123 122 120 120 116 115 114 110 106 104 105 105 110 110 114 128 126 120 125 124 115 105 108 114 103 91 83 80 82 82 79 81 99 118 124 120 116 111 105 96 84 77 73 84 92 100 124 143 132 42 21 19 21 50 88 87 73 52 53 51 50 49 58 70
138 137 131 134 137 136 135 135 135 134 135 135 135 133 131 131 130 129 128 127 126 126 125 123 121 117 115 111 108 105 103 103 101 107 108 117 134 135 129 133 132 125 117 113 115 105 95 88 82 84 88 86 83 96 118 126 122 118 113 106 96 82 75 70 83 88 101 140 174 290 20 8 12 14 21 61 64 54 42 51 49 49 62 67 64
136 136 134 136 136 136 135 134 135 134 134 134 134 132 132 133 132 132 131 130 129 128 125 122 120 117 113 108 106 104 104 104 104 103 105 113 122 131 132 130 130 127 120 115 117 109 98 91 84 85 89 91 87 95 118 130 126 122 116 108 95 81 76 69 84 88 98 154 187 271 352 7 12 12 12 24 52 70 60 63 53 47 67 72 64
137 137 137 136 136 140 140 138 137 136 136 137 136 135 135 135 135 135 133 132 130 128 124 121 119 114 110 106 104 102 103 100 99 100 101 100 96 106 116 124 128 126 121 117 119 114 107 98 88 86 89 92 90 96 115 133 132 129 121 110 95 81 82 74 90 84 89 164 193 271 319 359 9 12 6 1 51 84 70 71 54 47 67 71 67
141 139 137 136 139 144 143 141 140 139 140 139 138 138 138 137 137 136 134 133 130 127 125 123 118 113 108 105 102 99 99 97 95 95 99 94 87 89 99 118 130 132 126 124 124 119 119 108 94 89 89 90 89 95 110 132 136 133 125 113 99 87 88 70 79 63 73 170 202 270 276 348 0 5 357 352 38 78 58 55 43 51 67 65 63
142 139 138 139 142 144 143 143 142 142 141 140 139 139 139 139 138 136 134 132 130 128 126 123 117 111 106 99 95 93 97 100 96 86 89 88 83 81 90 110 122 130 129 129 130 128 129 119 105 94 91 89 86 91 101 124 137 139 132 120 108 88 81 61 71 61 66 175 209 252 250 348 358 356 347 342 360 27 23 23 26 44 63 66 65
140 141 140 141 145 145 145 145 144 144 142 140 139 139 139 139 138 136 134 132 132 130 127 123 116 108 100 93 88 91 97 95 86 75 77 80 77 76 82 94 107 120 127 131 134 134 134 124 112 98 94 90 86 87 87 101 113 135 134 124 111 82 73 53 64 53 48 182 209 247 270 346 353 350 342 331 336 349 342 345 11 34 61 72 73
138 142 140 142 146 147 147 146 147 145 143 142 140 140 140 140 139 136 135 135 133 130 126 119 109 101 93 91 89 91 95 86 78 71 72 77 75 73 75 81 92 105 117 128 135 136 134 126 116 103 97 93 91 88 83 83 78 98 122 123 111 80 62 41 55 35 22 219 229 267 285 337 345 347 343 329 328 339 330 330 1 34 79 62 46
138 139 137 141 147 150 149 148 148 145 144 143 140 140 141 141 140 137 136 135 133 127 120 112 104 103 102 101 94 89 91 82 75 69 69 75 74 72 72 75 82 94 108 120 131 136 134 128 120 109 100 92 93 92 88 85 79 90 111 126 118 86 55 30 36 22 6 232 234 262 279 318 335 345 347 334 325 331 328 322 359 17 359 357 18
138 136 137 143 150 153 151 148 147 144 143 142 141 141 140 141 140 137 135 132 129 124 115 109 106 108 114 110 95 89 90 82 74 70 67 70 72 72 72 73 77 84 97 113 125 133 132 127 122 113 102 91 87 94 98 90 82 88 95 126 158 302 327 344 2 16 8 230 240 272 279 293 312 339 346 340 330 330 328 314 343 340 324 3 49
139 139 142 148 151 152 148 145 145 143 143 141 142 141 139 142 139 135 131 133 131 123 115 113 114 113 115 115 100 92 91 76 70 70 62 65 68 69 74 75 75 77 83 97 111 123 128 125 122 114 105 95 71 94 123 101 75 68 50 13 312 293 295 316 340 9 359 273 265 270 270 276 290 323 337 342 335 328 323 310 326 315 305 356 208
143 145 147 150 147 145 145 144 144 146 147 145 145 142 142 143 136 135 139 143 132 115 110 110 113 108 99 102 93 84 91 68 56 65 57 61 66 61 71 77 79 79 78 82 89 99 105 106 101 103 198 259 315 60 166 130 47 23 9 5 1 342 306 318 355 1 338 304 286 267 265 276 287 313 329 337 333 323 319 307 316 307 279 263 248
147 148 149 149 143 143 147 147 148 153 153 151 149 145 142 140 137 142 149 143 125 114 113 111 109 100 81 76 63 58 104 61 36 49 49 60 69 62 63 73 82 84 81 81 82 85 87 86 63 8 284 262 278 279 220 245 315 311 330 350 9 36 15 328 348 352 317 301 289 269 272 284 294 313 323 329 327 320 314 304 306 300 287 253 251
146 148 150 149 146 147 149 148 150 153 153 154 153 149 142 140 142 144 147 131 116 123 127 120 121 108 86 87 99 127 142 106 94 131 54 71 70 64 64 69 76 78 77 70 70 76 73 62 39 29 27 311 288 293 268 275 289 280 295 319 318 314 328 301 318 321 299 289 278 276 291 295 297 306 312 317 316 311 307 302 299 296 296 264 252
144 147 147 145 148 149 148 144 143 149 155 159 153 149 143 140 144 136 136 133 122 126 126 130 182 170 148 146 154 162 167 157 172 204 229 251 26 49 63 65 62 59 57 34 17 32 16 359 353 3 7 340 320 311 298 289 282 275 281 303 308 298 285 286 305 306 288 283 293 302 303 297 294 299 304 307 306 303 300 297 292 289 291 277 270
141 142 143 141 144 144 144 141 143 152 151 148 146 147 148 150 157 147 137 142 133 124 145 160 156 168 175 181 187 185 184 182 193 212 235 261 303 356 3 335 337 350 7 356 320 322 327 322 313 314 326 320 322 323 311 294 276 277 284 292 300 299 295 292 295 295 284 288 302 304 300 296 295 301 302 301 301 302 299 293 287 283 282 275 275
132 134 139 139 140 141 143 142 149 156 142 135 139 147 154 162 176 178 166 167 159 151 182 189 175 186 200 194 199 207 193 188 202 214 224 241 266 271 357 339 342 341 323 317 314 310 302 302 299 293 303 307 313 321 316 300 279 281 285 292 299 299 301 297 290 286 283 288 297 297 296 294 293 300 302 298 298 299 298 294 287 282 274 265 270
127 133 139 141 142 146 148 149 157 160 153 148 147 154 160 168 181 184 182 182 174 173 182 192 198 201 209 211 216 226 206 191 205 167 190 211 194 173 19 352 354 356 325 312 316 323 306 303 303 292 302 307 307 316 318 307 287 282 277 282 291 296 299 294 291 288 281 285 294 293 289 288 290 296 297 294 295 295 295 294 288 284 275 263 265
129 137 142 144 146 149 150 155 161 157 159 160 157 163 165 167 173 175 179 174 167 175 177 173 190 202 222 230 222 228 205 163 151 79 85 82 105 93 27 7 10 2 345 345 335 344 344 340 338 326 332 326 312 320 327 322 310 303 296 290 285 288 290 284 281 283 282 284 288 287 285 287 290 292 289 286 289 290 290 290 288 284 277 267 260
136 141 144 143 145 150 150 157 158 154 161 162 160 166 166 166 167 162 162 166 160 158 159 153 177 203 235 244 226 219 205 106 72 65 72 82 83 64 23 2 11 14 1 2 358 354 344 341 343 335 337 331 321 326 328 323 320 317 317 313 300 294 295 289 281 278 279 280 281 284 287 291 292 291 288 288 289 287 285 286 287 284 280 272 258
143 146 144 142 149 155 157 161 161 164 171 169 167 169 170 169 168 164 157 156 152 148 157 163 174 207 241 252 236 208 205 107 85 68 73 81 74 75 66 3 20 27 9 353 339 332 326 326 332 328 325 323 322 325 326 323 321 321 320 317 312 310 307 301 296 289 283 281 282 286 290 292 293 292 292 294 293 289 285 283 284 283 281 277 262
147 146 146 151 160 161 161 164 166 170 169 166 169 170 171 167 167 169 162 157 155 157 172 176 173 219 255 249 225 194 194 77 80 60 59 63 77 99 89 65 49 22 355 345 344 350 352 339 330 332 329 323 317 317 326 326 320 320 319 315 312 313 314 311 311 307 301 298 298 297 296 295 294 295 297 299 298 293 287 285 283 281 281 279 268
144 149 156 161 160 157 159 162 166 168 162 161 166 167 170 166 166 170 167 169 166 164 172 169 156 164 258 266 220 166 69 57 81 68 59 50 65 68 50 57 50 6 347 350 357 0 351 337 332 335 330 325 321 319 325 324 320 317 313 312 307 305 309 310 312 311 310 309 308 305 301 300 301 302 301 301 300 296 292 289 287 284 281 279 273
149 157 163 163 156 153 160 163 163 167 165 166 165 165 167 163 166 164 160 164 159 157 153 140 133 135 215 274 254 174 119 80 81 79 64 33 49 53 38 49 47 3 345 347 344 343 339 338 339 330 321 323 324 323 324 324 326 325 320 317 310 304 303 303 305 305 306 306 305 308 307 307 308 307 305 302 301 300 298 296 294 291 285 279 275
156 161 162 163 160 155 162 165 161 164 164 167 167 162 162 161 164 154 144 144 136 135 128 118 127 131 136 241 262 175 114 88 66 69 65 46 47 58 41 33 41 11 347 345 335 341 350 348 346 335 328 331 330 330 332 331 328 325 322 322 320 317 312 307 304 301 300 299 299 302 304 305 305 306 306 303 301 302 301 300 299 297 294 286 279
161 161 160 162 162 159 163 165 160 160 156 161 164 156 153 154 151 141 141 137 119 119 112 106 121 125 120 134 266 89 95 84 72 73 69 61 62 64 52 48 51 33 12 9 3 11 11 2 3 360 350 346 343 342 342 337 331 327 322 320 319 317 314 309 305 303 300 299 299 299 300 300 300 302 303 302 302 304 303 300 300 300 299 295 287
165 163 161 159 158 156 160 161 156 156 153 154 159 155 151 149 144 136 135 127 115 117 108 99 105 106 106 99 21 66 84 84 84 84 80 77 79 76 70 73 74 66 56 48 39 32 23 14 15 17 6 355 349 349 348 343 337 332 328 324 321 315 311 309 305 305 304 301 302 303 304 304 301 301 300 299 300 303 303 301 300 301 301 298 293
162 162 161 158 154 151 154 155 152 156 155 152 152 151 147 144 137 130 129 125 117 116 108 103 103 98 93 82 68 80 85 88 90 88 86 84 83 81 79 77 75 73 67 60 52 39 33 26 17 23 21 15 12 6 357 348 340 337 337 333 327 318 310 310 308 305 303 301 303 306 307 307 305 304 303 301 299 301 303 303 301 299 298 296 296
157 158 155 153 150 147 149 148 150 156 155 151 147 145 144 138 130 128 131 124 116 114 110 107 103 97 92 90 88 87 83 85 89 88 83 75 69 68 68 65 59 56 51 46 39 28 25 20 14 16 17 32 30 14 1 352 345 341 339 334 329 327 324 322 315 306 299 297 301 309 311 312 311 309 310 306 301 301 303 303 301 297 295 295 295
154 155 150 149 146 146 147 146 149 152 150 149 147 144 141 135 132 134 133 124 118 114 108 104 100 99 101 101 97 89 83 82 82 84 81 74 65 58 56 55 49 44 40 33 28 25 21 12 10 11 8 23 25 12 4 358 352 342 335 339 342 339 341 346 347 333 314 302 302 307 309 313 312 310 311 310 303 301 303 303 303 301 296 292 292
150 152 147 143 142 145 148 146 148 150 150 150 151 150 146 141 139 139 134 125 118 111 106 104 102 103 108 106 98 90 84 78 72 73 77 77 70 59 51 50 51 53 49 38 29 30 26 14 9 14 14 17 19 14 7 4 4 351 336 339 346 350 1 19 39 29 3 346 339 334 332 333 328 321 313 306 301 302 306 308 310 310 304 297 293
150 149 144 140 139 142 145 146 149 152 152 152 154 154 151 148 145 142 135 122 115 113 111 108 106 106 105 103 95 85 78 71 65 65 69 71 68 61 51 44 48 56 54 44 35 32 28 21 13 13 18 21 26 21 15 16 12 353 338 335 340 352 7 9 359 2 3 2 1 359 0 2 357 350 342 330 316 308 308 310 311 313 312 307 301
153 147 142 140 140 140 141 143 148 150 150 152 152 146 142 144 145 140 131 119 115 117 115 113 113 108 99 95 86 76 72 66 59 55 54 55 56 58 53 44 43 47 49 45 41 33 26 25 21 18 17 22 34 30 25 31 22 5 2 357 342 341 353 356 335 334 348 353 356 2 5 6 3 3 7 5 356 345 337 333 333 331 327 323 316
153 147 143 141 141 141 142 143 146 146 144 144 143 140 138 137 133 127 123 120 119 119 115 112 115 113 99 86 77 69 64 58 54 47 42 40 41 50 56 53 53 54 54 49 44 37 30 28 27 26 25 29 38 33 31 39 35 29 23 333 330 343 352 354 332 324 334 343 348 356 358 358 355 357 6 6 3 0 356 354 354 353 352 349 340
149 149 145 142 141 140 141 140 140 138 137 135 134 136 136 130 125 122 119 116 114 111 109 106 105 106 95 81 72 63 59 56 51 48 45 43 44 56 70 69 62 58 57 53 49 46 40 33 29 31 36 39 42 37 34 39 41 43 41 18 348 7 347 336 327 316 330 340 346 351 352 353 349 353 0 357 354 354 351 350 350 353 358 3 2
146 148 145 141 139 135 132 133 133 132 131 130 129 131 133 132 131 129 123 111 101 99 104 105 102 95 86 78 67 57 59 59 57 59 60 58 55 62 77 75 66 63 62 60 57 54 49 42 36 36 41 42 45 42 34 32 40 43 43 44 38 24 352 336 333 315 328 334 345 351 351 350 347 351 356 352 351 348 346 347 348 351 358 4 9
144 146 140 134 132 129 125 124 125 125 124 122 123 126 132 138 137 132 126 116 106 104 111 113 107 95 86 81 73 69 71 69 69 72 72 68 60 59 76 76 68 67 68 63 59 55 50 43 36 35 42 45 46 46 38 30 34 34 34 39 38 34 26 16 21 343 328 328 336 344 348 348 348 354 354 352 351 347 347 351 351 353 357 0 2
141 142 138 132 128 123 119 118 117 117 116 115 117 122 133 141 141 133 126 123 118 116 121 123 119 109 96 86 80 81 83 78 73 72 72 69 62 59 74 78 69 71 72 62 53 49 44 39 38 42 51 51 46 46 43 37 36 31 30 35 35 34 35 35 30 14 352 321 328 338 342 343 346 354 354 351 350 349 350 353 352 353 355 355 358
141 140 136 133 130 125 121 119 117 116 118 120 118 120 130 137 137 132 124 121 122 121 122 124 122 116 102 90 83 82 84 79 67 64 69 70 64 61 71 77 70 71 73 61 50 47 48 48 50 52 55 54 50 50 49 45 43 37 32 35 34 32 35 38 30 21 16 348 335 336 337 340 341 344 350 349 347 350 352 349 350 353 351 352 356
142 137 133 133 133 130 126 121 120 119 121 124 118 115 123 129 128 128 125 123 125 123 122 124 124 118 106 96 90 84 80 72 63 63 69 72 69 64 70 77 70 69 74 66 54 51 51 52 54 53 53 52 49 50 50 45 41 36 29 25 21 24 31 31 23 20 17 3 350 331 335 341 334 332 341 346 345 348 350 349 352 352 348 351 353
144 136 134 135 134 132 128 121 118 118 119 121 119 114 115 118 121 124 125 127 129 127 127 129 127 121 111 103 98 90 81 73 67 68 72 73 72 69 72 76 72 69 72 69 62 58 55 53 55 53 52 51 47 48 48 42 41 37 30 26 25 31 36 31 22 17 14 2 346 332 335 340 330 325 333 341 343 346 347 350 352 349 348 349 347